Schneifelwetter: Wetterstation Hallschlag, 537 m . NN
Wetterdaten: Donnerstag, 25.03.2010
Datum Zeit Temp. A. Feuchte A. Luftdruck Regen Wind Richtung Richtung Sonnenschein Helligkeit T Regen Taupunkt Windchill
25.03.2010 00:00 4,3 C 86 % 1009 hPa 0,0 l/m 4,2 km/h (1 Bft) S-SO 160 0 min 0 lux 0,00 min 2,2 C 4,3 C
25.03.2010 00:15 4,3 C 86 % 1008 hPa 0,0 l/m 0,0 km/h (0 Bft) S-SO 160 0 min 0 lux 0,00 min 2,2 C 4,3 C
25.03.2010 00:30 4,1 C 87 % 1008 hPa 0,0 l/m 0,8 km/h (0 Bft) S22.5 170 0 min 0 lux 0,00 min 2,1 C 4,1 C
25.03.2010 00:45 4,5 C 88 % 1008 hPa 0,0 l/m 12,1 km/h (2 Bft) S22.5 185 0 min 0 lux 0,00 min 2,7 C 0,1 C
25.03.2010 01:00 5,4 C 89 % 1008 hPa 0,0 l/m 11,3 km/h (2 Bft) S22.5 190 0 min 0 lux 0,00 min 3,7 C 1,7 C
25.03.2010 01:15 5,6 C 86 % 1008 hPa 0,0 l/m 10,9 km/h (2 Bft) S 190 0 min 0 lux 0,00 min 3,4 C 2,1 C
25.03.2010 01:30 6,2 C 87 % 1008 hPa 0,0 l/m 12,0 km/h (2 Bft) S22.5 185 0 min 0 lux 0,00 min 4,2 C 2,1 C
25.03.2010 01:45 6,8 C 85 % 1008 hPa 0,0 l/m 13,5 km/h (3 Bft) S-SW45 200 0 min 0 lux 0,00 min 4,5 C 2,0 C
25.03.2010 02:01 7,2 C 83 % 1008 hPa 0,0 l/m 15,8 km/h (3 Bft) S-SW22.5 195 0 min 0 lux 0,00 min 4,5 C 1,4 C
25.03.2010 02:16 7,2 C 83 % 1008 hPa 0,0 l/m 11,6 km/h (2 Bft) S-SW45 195 0 min 0 lux 0,00 min 4,5 C 3,5 C
25.03.2010 02:31 7,4 C 83 % 1008 hPa 0,0 l/m 12,1 km/h (2 Bft) S-SW22.5 200 0 min 0 lux 0,00 min 4,7 C 3,5 C
25.03.2010 02:46 7,4 C 82 % 1008 hPa 0,0 l/m 8,2 km/h (2 Bft) S-SW22.5 210 0 min 0 lux 0,00 min 4,5 C 6,0 C
25.03.2010 03:01 7,3 C 82 % 1008 hPa 0,0 l/m 8,8 km/h (2 Bft) SW22.5 220 0 min 0 lux 0,00 min 4,4 C 5,4 C
25.03.2010 03:16 7,0 C 82 % 1008 hPa 0,0 l/m 6,5 km/h (2 Bft) SW 220 0 min 0 lux 0,00 min 4,1 C 6,9 C
25.03.2010 03:31 6,7 C 82 % 1007 hPa 0,0 l/m 7,2 km/h (2 Bft) S22.5 190 0 min 0 lux 0,00 min 3,8 C 6,0 C
25.03.2010 03:46 6,7 C 83 % 1007 hPa 0,0 l/m 7,2 km/h (2 Bft) S 175 0 min 0 lux 0,00 min 4,0 C 6,0 C
25.03.2010 04:01 7,2 C 84 % 1007 hPa 0,0 l/m 9,4 km/h (2 Bft) S-SW22.5 210 0 min 0 lux 0,00 min 4,7 C 4,9 C
25.03.2010 04:16 8,0 C 83 % 1007 hPa 0,0 l/m 9,0 km/h (2 Bft) SW22.5 215 0 min 0 lux 0,00 min 5,3 C 6,0 C
25.03.2010 04:31 8,1 C 82 % 1007 hPa 0,0 l/m 8,4 km/h (2 Bft) S-SW45 210 0 min 0 lux 0,00 min 5,2 C 6,6 C
25.03.2010 04:46 8,2 C 82 % 1007 hPa 0,0 l/m 11,2 km/h (2 Bft) S 185 0 min 0 lux 0,00 min 5,3 C 4,9 C
25.03.2010 05:01 8,4 C 81 % 1007 hPa 0,0 l/m 16,5 km/h (3 Bft) S22.5 180 0 min 0 lux 0,00 min 5,3 C 2,5 C
25.03.2010 05:16 8,8 C 80 % 1007 hPa 0,0 l/m 16,8 km/h (3 Bft) S22.5 180 0 min 0 lux 0,00 min 5,5 C 2,9 C
25.03.2010 05:31 8,6 C 80 % 1007 hPa 0,0 l/m 16,8 km/h (3 Bft) S22.5 190 0 min 0 lux 0,00 min 5,3 C 2,7 C
25.03.2010 05:46 8,4 C 80 % 1007 hPa 0,0 l/m 15,8 km/h (3 Bft) S 190 0 min 0 lux 0,00 min 5,2 C 2,8 C
25.03.2010 06:01 8,1 C 81 % 1007 hPa 0,0 l/m 10,3 km/h (2 Bft) S22.5 185 0 min 0 lux 0,00 min 5,0 C 5,3 C
25.03.2010 06:16 8,2 C 81 % 1007 hPa 0,0 l/m 10,1 km/h (2 Bft) S22.5 175 0 min 64 lux 0,00 min 5,1 C 5,5 C
25.03.2010 06:31 8,0 C 81 % 1007 hPa 0,0 l/m 13,0 km/h (3 Bft) S22.5 185 0 min 508 lux 0,00 min 4,9 C 3,7 C
25.03.2010 06:46 7,9 C 81 % 1007 hPa 0,0 l/m 13,1 km/h (3 Bft) S-SW22.5 195 0 min 1,33 klux 0,00 min 4,8 C 3,5 C
25.03.2010 07:01 7,7 C 82 % 1007 hPa 0,0 l/m 19,6 km/h (3 Bft) S22.5 180 0 min 2,43 klux 0,00 min 4,8 C 0,5 C
25.03.2010 07:16 8,1 C 82 % 1007 hPa 0,0 l/m 20,9 km/h (4 Bft) S22.5 185 0 min 4,39 klux 0,00 min 5,2 C 0,5 C
25.03.2010 07:31 8,7 C 81 % 1007 hPa 0,0 l/m 18,3 km/h (3 Bft) S22.5 175 0 min 12,3 klux 0,00 min 5,6 C 2,2 C
25.03.2010 07:46 9,0 C 81 % 1007 hPa 0,0 l/m 16,0 km/h (3 Bft) S22.5 175 0 min 17,2 klux 0,00 min 5,9 C 3,5 C
25.03.2010 08:01 9,6 C 80 % 1007 hPa 0,0 l/m 21,6 km/h (4 Bft) S-SO45 160 0 min 23,9 klux 0,00 min 6,3 C 2,3 C
25.03.2010 08:15 10,4 C 78 % 1007 hPa 0,0 l/m 19,6 km/h (3 Bft) S-SO22.5 165 0 min 28,4 klux 0,00 min 6,7 C 3,9 C
25.03.2010 08:31 11,2 C 75 % 1007 hPa 0,0 l/m 23,4 km/h (4 Bft) S67.5 180 0 min 30,9 klux 0,00 min 6,9 C 3,9 C
25.03.2010 08:46 11,8 C 72 % 1007 hPa 0,0 l/m 24,6 km/h (4 Bft) S45 180 0 min 32,4 klux 0,00 min 6,9 C 4,4 C
25.03.2010 09:01 11,8 C 73 % 1006 hPa 0,0 l/m 26,0 km/h (4 Bft) S22.5 180 0 min 22,7 klux 0,00 min 7,1 C 4,0 C
25.03.2010 09:16 12,0 C 73 % 1006 hPa 0,0 l/m 17,8 km/h (3 Bft) S22.5 170 15 min 46,6 klux 0,00 min 7,3 C 6,6 C
25.03.2010 09:31 13,2 C 71 % 1006 hPa 0,0 l/m 19,4 km/h (3 Bft) S22.5 170 15 min 49,5 klux 0,00 min 8,1 C 7,6 C
25.03.2010 09:46 13,7 C 68 % 1006 hPa 0,0 l/m 31,6 km/h (5 Bft) S-SW45 205 15 min 54,3 klux 0,00 min 7,9 C 5,6 C
25.03.2010 10:01 13,8 C 67 % 1006 hPa 0,0 l/m 25,6 km/h (4 Bft) S-SW45 200 15 min 54,3 klux 0,00 min 7,8 C 6,9 C
25.03.2010 10:16 14,3 C 65 % 1006 hPa 0,0 l/m 28,4 km/h (4 Bft) S-SW45 195 15 min 58,3 klux 0,00 min 7,8 C 7,0 C
25.03.2010 10:31 14,3 C 63 % 1006 hPa 0,0 l/m 35,4 km/h (5 Bft) S-SW45 200 15 min 59,1 klux 0,00 min 7,4 C 5,9 C
25.03.2010 10:46 14,4 C 64 % 1006 hPa 0,0 l/m 32,7 km/h (5 Bft) S-SW45 210 15 min 63,1 klux 0,00 min 7,7 C 6,4 C
25.03.2010 11:01 15,0 C 62 % 1006 hPa 0,0 l/m 28,6 km/h (4 Bft) S45 180 15 min 67,5 klux 0,00 min 7,8 C 7,9 C
25.03.2010 11:16 14,8 C 62 % 1006 hPa 0,0 l/m 29,0 km/h (5 Bft) S45 170 15 min 64,9 klux 0,00 min 7,6 C 7,6 C
25.03.2010 11:31 15,1 C 60 % 1006 hPa 0,0 l/m 31,0 km/h (5 Bft) S22.5 180 15 min 70,0 klux 0,00 min 7,4 C 7,7 C
25.03.2010 11:46 15,5 C 60 % 1005 hPa 0,0 l/m 28,2 km/h (4 Bft) S-SO22.5 165 15 min 67,2 klux 0,00 min 7,8 C 8,7 C
25.03.2010 12:00 15,7 C 59 % 1005 hPa 0,0 l/m 31,2 km/h (5 Bft) S22.5 170 14 min 69,0 klux 0,00 min 7,7 C 8,5 C
25.03.2010 12:16 15,8 C 58 % 1005 hPa 0,0 l/m 32,9 km/h (5 Bft) S22.5 170 16 min 71,6 klux 0,00 min 7,6 C 8,4 C
25.03.2010 12:31 16,0 C 58 % 1005 hPa 0,0 l/m 32,5 km/h (5 Bft) S-SW45 195 15 min 69,9 klux 0,00 min 7,7 C 8,7 C
25.03.2010 12:46 16,0 C 59 % 1005 hPa 0,0 l/m 36,2 km/h (5 Bft) S67.5 170 15 min 71,2 klux 0,00 min 8,0 C 8,2 C
25.03.2010 13:01 16,0 C 57 % 1005 hPa 0,0 l/m 38,2 km/h (5 Bft) SW67.5 215 15 min 75,9 klux 0,00 min 7,5 C 8,0 C
25.03.2010 13:16 15,8 C 59 % 1005 hPa 0,0 l/m 31,6 km/h (5 Bft) S-SO22.5 165 15 min 78,4 klux 0,00 min 7,8 C 8,6 C
25.03.2010 13:31 16,3 C 57 % 1005 hPa 0,0 l/m 43,2 km/h (6 Bft) SW45 215 15 min 63,5 klux 0,00 min 7,8 C 7,9 C
25.03.2010 13:46 16,5 C 56 % 1005 hPa 0,0 l/m 28,1 km/h (4 Bft) S-SW45 195 15 min 41,9 klux 0,00 min 7,7 C 10,1 C
25.03.2010 14:01 16,6 C 55 % 1005 hPa 0,0 l/m 39,1 km/h (6 Bft) S45 180 15 min 50,2 klux 0,00 min 7,5 C 8,8 C
25.03.2010 14:16 16,7 C 53 % 1004 hPa 0,0 l/m 38,3 km/h (5 Bft) S45 190 15 min 91,2 klux 0,00 min 7,1 C 9,0 C
25.03.2010 14:31 17,0 C 51 % 1004 hPa 0,0 l/m 44,8 km/h (6 Bft) S22.5 180 15 min 86,6 klux 0,00 min 6,8 C 8,8 C
25.03.2010 14:46 16,7 C 53 % 1004 hPa 0,0 l/m 45,4 km/h (6 Bft) S-SW67.5 200 15 min 72,5 klux 0,00 min 7,1 C 8,3 C
25.03.2010 15:01 16,6 C 53 % 1004 hPa 0,0 l/m 39,5 km/h (6 Bft) S45 185 15 min 63,7 klux 0,00 min 7,0 C 8,7 C
25.03.2010 15:16 16,8 C 55 % 1004 hPa 0,0 l/m 40,0 km/h (6 Bft) SW67.5 215 15 min 64,3 klux 0,00 min 7,7 C 9,0 C
25.03.2010 15:30 16,7 C 53 % 1004 hPa 0,0 l/m 36,1 km/h (5 Bft) SW45 220 14 min 65,4 klux 0,00 min 7,1 C 9,3 C
25.03.2010 15:46 16,4 C 53 % 1004 hPa 0,0 l/m 34,9 km/h (5 Bft) S22.5 175 16 min 58,4 klux 0,00 min 6,8 C 9,0 C
25.03.2010 16:01 15,6 C 54 % 1004 hPa 0,0 l/m 50,7 km/h (7 Bft) S-SW67.5 205 0 min 13,7 klux 0,00 min 6,3 C 6,2 C
25.03.2010 16:16 15,1 C 56 % 1004 hPa 0,0 l/m 38,1 km/h (5 Bft) S45 185 0 min 13,7 klux 0,00 min 6,4 C 6,7 C
25.03.2010 16:31 15,0 C 57 % 1004 hPa 0,0 l/m 24,5 km/h (4 Bft) S22.5 180 0 min 14,8 klux 0,00 min 6,6 C 8,7 C
25.03.2010 16:46 14,8 C 57 % 1004 hPa 0,0 l/m 26,8 km/h (4 Bft) S45 185 0 min 10,8 klux 0,00 min 6,4 C 8,0 C
25.03.2010 17:01 14,8 C 57 % 1004 hPa 0,0 l/m 24,7 km/h (4 Bft) S22.5 175 0 min 12,4 klux 0,00 min 6,4 C 8,4 C
25.03.2010 17:15 14,7 C 58 % 1004 hPa 0,0 l/m 18,3 km/h (3 Bft) S22.5 170 0 min 8,45 klux 0,00 min 6,5 C 9,8 C
25.03.2010 17:31 14,4 C 58 % 1004 hPa 0,0 l/m 27,0 km/h (4 Bft) S22.5 170 0 min 7,33 klux 0,00 min 6,2 C 7,4 C
25.03.2010 17:46 14,4 C 59 % 1004 hPa 0,0 l/m 27,8 km/h (4 Bft) S45 180 0 min 7,79 klux 0,00 min 6,5 C 7,2 C
25.03.2010 18:01 14,1 C 59 % 1004 hPa 0,0 l/m 22,3 km/h (4 Bft) S-SW45 200 0 min 5,96 klux 0,00 min 6,2 C 8,0 C
25.03.2010 18:16 13,8 C 59 % 1004 hPa 0,0 l/m 18,1 km/h (3 Bft) S45 185 0 min 4,80 klux 0,00 min 5,9 C 8,7 C
25.03.2010 18:31 13,6 C 60 % 1004 hPa 0,0 l/m 18,8 km/h (3 Bft) S-SW45 200 0 min 8,07 klux 0,00 min 6,0 C 8,3 C
25.03.2010 18:46 13,0 C 62 % 1004 hPa 0,0 l/m 23,7 km/h (4 Bft) S45 180 0 min 3,93 klux 0,00 min 5,9 C 6,2 C
25.03.2010 19:00 12,1 C 64 % 1004 hPa 0,0 l/m 17,1 km/h (3 Bft) SW22.5 220 0 min 862 lux 0,00 min 5,5 C 6,9 C
25.03.2010 19:16 11,5 C 66 % 1004 hPa 0,0 l/m 15,4 km/h (3 Bft) SW45 215 0 min 245 lux 0,00 min 5,4 C 6,8 C
25.03.2010 19:31 10,8 C 67 % 1004 hPa 0,0 l/m 11,4 km/h (2 Bft) SW22.5 215 0 min 27 lux 0,00 min 4,9 C 7,7 C
25.03.2010 19:46 10,2 C 68 % 1005 hPa 0,0 l/m 9,0 km/h (2 Bft) S-SW22.5 205 0 min 0 lux 0,00 min 4,6 C 8,4 C
25.03.2010 20:01 9,8 C 70 % 1005 hPa 0,0 l/m 11,5 km/h (2 Bft) SW22.5 220 0 min 0 lux 0,00 min 4,6 C 6,5 C
25.03.2010 20:16 9,6 C 72 % 1005 hPa 0,0 l/m 12,0 km/h (2 Bft) SW45 215 0 min 0 lux 0,00 min 4,8 C 6,1 C
25.03.2010 20:31 9,3 C 73 % 1005 hPa 0,0 l/m 10,5 km/h (2 Bft) S-SW22.5 210 0 min 0 lux 0,00 min 4,7 C 6,5 C
25.03.2010 20:46 9,5 C 75 % 1005 hPa 0,0 l/m 15,0 km/h (3 Bft) S22.5 185 0 min 0 lux 0,00 min 5,3 C 4,5 C
25.03.2010 21:01 9,8 C 76 % 1005 hPa 0,0 l/m 13,4 km/h (3 Bft) S22.5 170 0 min 0 lux 0,00 min 5,8 C 5,6 C
25.03.2010 21:16 10,0 C 75 % 1005 hPa 0,0 l/m 16,5 km/h (3 Bft) S22.5 180 0 min 0 lux 0,00 min 5,8 C 4,5 C
25.03.2010 21:31 10,0 C 75 % 1005 hPa 0,0 l/m 13,1 km/h (3 Bft) S22.5 180 0 min 0 lux 0,00 min 5,8 C 6,0 C
25.03.2010 21:46 9,9 C 75 % 1005 hPa 0,0 l/m 14,9 km/h (3 Bft) S22.5 175 0 min 0 lux 0,00 min 5,7 C 5,1 C
25.03.2010 22:01 9,6 C 76 % 1005 hPa 0,0 l/m 12,8 km/h (3 Bft) S22.5 190 0 min 0 lux 0,00 min 5,6 C 5,7 C
25.03.2010 22:15 9,7 C 76 % 1005 hPa 0,0 l/m 13,0 km/h (3 Bft) S22.5 175 0 min 0 lux 0,00 min 5,7 C 5,7 C
25.03.2010 22:31 9,9 C 76 % 1005 hPa 0,0 l/m 14,8 km/h (3 Bft) S22.5 185 0 min 0 lux 0,00 min 5,9 C 5,1 C
25.03.2010 22:46 10,3 C 77 % 1005 hPa 0,0 l/m 40,5 km/h (6 Bft) W-SW45 250 0 min 0 lux 0,00 min 6,4 C -0,7 C
25.03.2010 23:01 10,1 C 77 % 1006 hPa 0,0 l/m 36,0 km/h (5 Bft) W-SW22.5 250 0 min 0 lux 0,00 min 6,3 C -0,3 C
25.03.2010 23:16 9,6 C 79 % 1006 hPa 0,0 l/m 19,6 km/h (3 Bft) W-SW45 250 0 min 0 lux 0,00 min 6,1 C 2,9 C
25.03.2010 23:31 9,5 C 81 % 1006 hPa 0,0 l/m 24,4 km/h (4 Bft) W-SW22.5 250 0 min 0 lux 0,00 min 6,4 C 1,3 C
25.03.2010 23:46 9,5 C 82 % 1006 hPa 0,0 l/m 30,0 km/h (5 Bft) W-SW22.5 255 0 min 0 lux 0,00 min 6,6 C -0,0 C
25.03.2010 23:55 9,5 C 83 % 1006 hPa 0,0 l/m 28,0 km/h (4 Bft) W-SW22.5 250 0 min 0 lux 0,00 min 6,8 C 0,4 C
_ Min-Zeit 00:30 14:31 14:16 - 00:15 - - - - - 00:30 22:46
Minimum _ 4,1 C 51 % 1004 hPa - 0,0 km/h (0 Bft) - - - - - 2,1 C -0,7 C
_ Max-Zeit 14:31 01:00 00:00 00:00 16:01 - - 12:16 14:16 00:00 09:31 13:46
Maximum _ 17,0 C 89 % 1009 hPa 0,0 l/m 50,7 km/h
S-SW (7 Bft)
- - 16 min 91,2 klux 0,00 min 8,1 C 10,1 C
Durchschnitt _ 11,2 C 71 % 1006 hPa #0,0 l/m 21,5 km/h (4 Bft) S - #6:45 h 21,0 klux #0 min. 5,9 C 5,6 C